GW3570 Weather Reports


Display with metric or nautical units.
time (UTC)temp
F
wind
direction
speed
MPH
gust
MPH
rain 1hr
in
rain 24hr
in
rain mn
in
humidity
%
barometer
mb
20260902105646 75 180 0.0 0.0 0.00 0.00 0.00 83 1016.7
20260902105142 76 180 0.0 0.0 0.00 0.00 0.00 83 1016.7
20260902104637 76 174 0.0 0.0 0.00 0.00 0.00 83 1016.7
20260902104132 77 174 0.0 0.0 0.00 0.00 0.00 82 1016.6
20260902103631 77 180 0.0 0.0 0.00 0.00 0.00 80 1016.5
20260902103127 77 178 0.0 0.0 0.00 0.00 0.00 79 1016.6
20260902102623 77 180 0.0 0.0 0.00 0.00 0.00 79 1016.6
20260902102120 78 178 0.0 0.0 0.00 0.00 0.00 78 1016.7
20260902101615 78 180 0.0 0.0 0.00 0.00 0.00 76 1016.6
20260902101115 78 180 0.0 0.0 0.00 0.00 0.00 76 1016.7
20260902100609 78 173 0.0 0.0 0.00 0.00 0.00 77 1016.5
20260902100104 78 178 0.0 0.0 0.00 0.00 0.00 78 1016.5
20260902095603 78 180 0.0 0.0 0.00 0.00 0.00 79 1016.4
20260902095103 78 172 0.0 0.0 0.00 0.00 0.00 79 1016.5
20260902094558 78 180 0.0 0.0 0.00 0.00 0.00 80 1016.5
20260902094054 78 180 0.0 0.0 0.00 0.00 0.00 80 1016.4
20260902093553 78 173 0.0 0.0 0.00 0.00 0.00 80 1016.4
20260902093048 78 180 0.0 0.0 0.00 0.00 0.00 79 1016.5
20260902092537 77 180 0.0 0.0 0.00 0.00 0.00 81 1016.2
20260902092032 77 171 1.0 1.0 0.00 0.00 0.00 81 1016.6
20260902091527 77 171 0.0 0.0 0.00 0.00 0.00 81 1016.4
20260902091024 77 172 0.0 0.0 0.00 0.00 0.00 81 1016.3
20260902090520 77 171 0.0 0.0 0.00 0.00 0.00 80 1016.4
20260902090019 77 171 0.0 0.0 0.00 0.00 0.00 80 1016.6
20260902085518 77 171 0.0 0.0 0.00 0.00 0.00 80 1016.5
20260902085013 77 173 0.0 0.0 0.00 0.00 0.00 80 1016.6
20260902084510 77 174 0.0 0.0 0.00 0.00 0.00 80 1016.4
20260902084006 77 174 0.0 0.0 0.00 0.00 0.00 79 1016.4
20260902083501 78 180 0.0 0.0 0.00 0.00 0.00 79 1016.1
20260902082954 78 172 0.0 0.0 0.00 0.00 0.00 79 1016.3
20260902082450 77 180 0.0 0.0 0.00 0.00 0.00 80 1016.1
20260902081946 77 180 0.0 0.0 0.00 0.00 0.00 81 1016.4
20260902081443 77 180 0.0 0.0 0.00 0.00 0.00 82 1016.2
20260902080938 77 180 0.0 0.0 0.00 0.00 0.00 83 1016.1
20260902080433 76 178 0.0 0.0 0.00 0.00 0.00 83 1016.2
20260902075933 76 179 0.0 0.0 0.00 0.00 0.00 84 1016.0
20260902075429 76 180 0.0 0.0 0.00 0.00 0.00 83 1016.3
20260902074924 76 180 0.0 0.0 0.00 0.00 0.00 84 1016.1
20260902074420 76 179 0.0 0.0 0.00 0.00 0.00 86 1016.2
20260902073914 76 180 0.0 0.0 0.00 0.00 0.00 86 1016.2
20260902073411 76 179 0.0 0.0 0.00 0.00 0.00 86 1016.1
20260902072906 76 180 0.0 0.0 0.00 0.00 0.00 86 1016.2
20260902072402 76 181 0.0 0.0 0.00 0.00 0.00 85 1015.9
20260902071858 77 180 0.0 0.0 0.00 0.00 0.00 84 1016.1
20260902071358 76 174 0.0 0.0 0.00 0.00 0.00 85 1016.1
20260902070855 76 182 0.0 0.0 0.00 0.00 0.00 86 1016.1
20260902070350 77 181 0.0 0.0 0.00 0.00 0.00 89 1016.2
20260902065848 77 172 0.0 0.0 0.00 0.00 0.00 90 1016.2
20260902065344 77 173 0.0 0.0 0.00 0.00 0.00 89 1016.4
20260902064839 77 180 0.0 0.0 0.00 0.00 0.00 90 1016.1
20260902064335 76 180 0.0 0.0 0.00 0.00 0.00 90 1016.0
20260902063831 76 180 0.0 0.0 0.00 0.00 0.00 90 1016.0
20260902063330 77 180 0.0 0.0 0.00 0.00 0.00 89 1016.2
20260902062825 77 180 0.0 0.0 0.00 0.00 0.00 89 1016.3
20260902062320 77 180 0.0 0.0 0.00 0.00 0.00 88 1016.0
20260902061819 78 177 0.0 0.0 0.00 0.00 0.00 89 1016.2
20260902061315 78 176 0.0 0.0 0.00 0.00 0.00 88 1016.1
20260902060811 77 179 0.0 0.0 0.00 0.00 0.00 87 1015.8
20260902060306 77 180 0.0 0.0 0.00 0.00 0.00 86 1016.0
20260902055801 77 178 0.0 0.0 0.00 0.00 0.00 86 1015.9
20260902055252 77 180 0.0 0.0 0.00 0.00 0.00 86 1016.1
20260902054747 77 177 0.0 0.0 0.00 0.00 0.00 87 1015.9
20260902054243 77 180 0.0 0.0 0.00 0.00 0.00 87 1016.0
20260902053738 77 174 0.0 0.0 0.00 0.00 0.00 88 1015.9
20260902053237 77 180 0.0 0.0 0.00 0.00 0.00 87 1016.1
20260902052737 77 179 0.0 0.0 0.00 0.00 0.00 88 1015.8
20260902052232 78 180 0.0 0.0 0.00 0.00 0.00 88 1015.8
20260902051731 78 174 0.0 0.0 0.00 0.00 0.00 89 1015.8
20260902051221 78 173 0.0 0.0 0.00 0.00 0.00 88 1015.9
20260902050715 78 180 0.0 0.0 0.00 0.00 0.00 87 1016.1
20260902050210 78 180 0.0 0.0 0.00 0.00 0.00 87 1015.9
20260902045705 78 180 0.0 0.0 0.00 0.00 0.00 87 1015.8
20260902045201 77 180 0.0 0.0 0.00 0.00 0.00 87 1015.7
20260902044656 78 180 0.0 0.0 0.00 0.00 0.00 86 1015.8
20260902044152 78 174 0.0 0.0 0.00 0.00 0.00 86 1015.7
20260902043646 78 180 0.0 0.0 0.00 0.00 0.00 85 1015.7
20260902043142 78 180 0.0 0.0 0.00 0.00 0.00 84 1015.7
20260902042641 78 180 0.0 0.0 0.00 0.00 0.00 84 1015.9
20260902042136 79 174 0.0 0.0 0.00 0.00 0.00 85 1015.7
20260902041631 79 180 0.0 0.0 0.00 0.00 0.00 85 1015.5
20260902041126 79 181 1.0 1.0 0.00 0.00 0.00 84 1015.6
20260902040625 78 181 1.0 1.0 0.00 0.00 0.00 85 1015.5
20260902040121 79 180 0.0 0.0 0.00 0.00 0.00 84 1015.5
20260902035619 79 181 1.0 1.0 0.00 0.00 0.00 83 1015.6
20260902035114 79 172 1.0 1.0 0.00 0.00 0.00 84 1015.5
20260902034613 80 176 0.0 0.0 0.00 0.00 0.00 83 1015.6
20260902034107 80 178 0.0 0.0 0.00 0.00 0.00 83 1015.7
20260902033606 80 170 0.0 1.0 0.00 0.00 0.00 83 1015.7
20260902033101 80 171 0.0 0.0 0.00 0.00 0.00 82 1015.5
20260902032559 80 179 0.0 0.0 0.00 0.00 0.00 82 1015.6
20260902032055 80 180 0.0 0.0 0.00 0.00 0.00 81 1015.5
20260902031549 80 179 0.0 0.0 0.00 0.00 0.00 81 1015.1
20260902031045 80 175 0.0 0.0 0.00 0.00 0.00 81 1015.7
20260902030540 80 172 1.0 1.0 0.00 0.00 0.00 80 1015.5
20260902030039 80 182 2.0 2.0 0.00 0.00 0.00 79 1015.6
20260902025534 81 179 0.0 0.0 0.00 0.00 0.00 80 1015.3
20260902025030 80 181 2.0 2.0 0.00 0.00 0.00 78 1015.6
20260902024525 81 181 1.0 1.0 0.00 0.00 0.00 78 1015.5
20260902024020 81 180 1.0 1.0 0.00 0.00 0.00 77 1015.0
20260902023515 81 173 0.0 0.0 0.00 0.00 0.00 77 1014.9
20260902023010 81 179 0.0 1.0 0.00 0.00 0.00 76 1015.1
20260902022504 82 180 1.0 2.0 0.00 0.00 0.00 75 1015.0
20260902022000 82 174 0.0 0.0 0.00 0.00 0.00 76 1015.2
20260902021455 82 178 0.0 0.0 0.00 0.00 0.00 72 1014.8
20260902020950 82 175 0.0 0.0 0.00 0.00 0.00 74 1015.0
20260902020446 82 174 0.0 0.0 0.00 0.00 0.00 70 1014.8
20260902015942 82 176 0.0 0.0 0.00 0.00 0.00 71 1014.8
20260902015437 82 177 0.0 1.0 0.00 0.00 0.00 68 1014.8
20260902014932 84 177 0.0 0.0 0.00 0.00 0.00 67 1014.6
20260902014429 83 174 0.0 0.0 0.00 0.00 0.00 68 1014.8
20260902013928 84 177 0.0 0.0 0.00 0.00 0.00 67 1014.7
20260902013424 84 177 0.0 0.0 0.00 0.00 0.00 68 1014.4
20260902012919 84 176 0.0 0.0 0.00 0.00 0.00 66 1014.4
20260902012414 85 176 0.0 0.0 0.00 0.00 0.00 65 1014.3
20260902011910 85 176 0.0 0.0 0.00 0.00 0.00 70 1014.3
20260902011405 85 176 0.0 0.0 0.00 0.00 0.00 64 1014.4
20260902010905 86 177 0.0 0.0 0.00 0.00 0.00 62 1014.3
20260902010359 86 177 0.0 0.0 0.00 0.00 0.00 66 1014.4
20260902005858 86 176 0.0 0.0 0.00 0.00 0.00 60 1014.5
20260902005352 87 177 0.0 0.0 0.00 0.00 0.00 59 1014.4
20260902004848 87 177 0.0 0.0 0.00 0.00 0.00 57 1014.7
20260902004342 88 176 0.0 0.0 0.00 0.00 0.00 57 1014.5
20260902003838 88 177 0.0 0.0 0.00 0.00 0.00 56 1014.3
20260902003333 88 176 0.0 0.0 0.00 0.00 0.00 55 1014.4
20260902002828 90 177 0.0 0.0 0.00 0.00 0.00 55 1014.3
20260902002322 91 175 0.0 0.0 0.00 0.00 0.00 56 1014.3
20260902001817 91 177 0.0 0.0 0.00 0.00 0.00 53 1014.3
20260902001312 92 175 0.0 0.0 0.00 0.00 0.00 56 1014.4
20260902000807 92 175 0.0 0.0 0.00 0.00 0.00 52 1014.4
20260902000301 93 176 0.0 0.0 0.00 0.00 0.00 54 1014.4
20260901235756 94 176 0.0 0.0 0.00 0.00 0.00 52 1014.4
20260901235251 94 176 0.0 0.0 0.00 0.00 0.00 50 1014.4
20260901234750 95 177 0.0 0.0 0.00 0.00 0.00 49 1014.6
20260901234240 95 176 0.0 0.0 0.00 0.00 0.00 50 1014.4
20260901233734 95 177 0.0 0.0 0.00 0.00 0.00 51 1014.8
20260901233230 96 176 0.0 0.0 0.00 0.00 0.00 50 1014.7
20260901232725 96 175 0.0 0.0 0.00 0.00 0.00 50 1014.7
20260901232220 97 177 0.0 0.0 0.00 0.00 0.00 49 1014.7
20260901231716 97 169 1.0 1.0 0.00 0.00 0.00 41 1014.6
20260901231212 96 167 1.0 1.0 0.00 0.00 0.00 45 1014.6
20260901230708 96 171 0.0 0.0 0.00 0.00 0.00 44 1014.8
20260901230207 96 160 0.0 0.0 0.00 0.00 0.00 45 1014.7
20260901225702 96 157 1.0 1.0 0.00 0.00 0.00 51 1014.5
20260901225157 98 152 2.0 2.0 0.00 0.00 0.00 47 1014.7
20260901224653 100 226 1.0 1.0 0.00 0.00 0.00 36 1014.7
20260901224149 100 132 2.0 2.0 0.00 0.00 0.00 32 1014.8
20260901223645 100 308 1.0 2.0 0.00 0.00 0.00 32 1014.8
20260901223140 101 166 1.0 2.0 0.00 0.00 0.00 38 1014.6
20260901222636 102 168 1.0 2.0 0.00 0.00 0.00 32 1014.6
20260901222132 101 208 1.0 1.0 0.00 0.00 0.00 32 1014.6
20260901221628 101 139 0.0 0.0 0.00 0.00 0.00 36 1014.6
20260901221123 102 137 1.0 1.0 0.00 0.00 0.00 33 1014.5
20260901220622 102 169 0.0 0.0 0.00 0.00 0.00 31 1014.7
20260901220121 102 154 3.0 5.0 0.00 0.00 0.00 32 1014.7
20260901215619 102 131 1.0 2.0 0.00 0.00 0.00 33 1014.7
20260901215114 102 149 2.0 2.0 0.00 0.00 0.00 35 1014.7
20260901214613 102 150 0.0 0.0 0.00 0.00 0.00 34 1014.8
20260901214112 101 162 0.0 0.0 0.00 0.00 0.00 32 1014.9
20260901213607 103 147 1.0 1.0 0.00 0.00 0.00 32 1014.8
20260901213102 103 301 1.0 2.0 0.00 0.00 0.00 30 1014.7
20260901212602 102 331 1.0 1.0 0.00 0.00 0.00 31 1014.8
20260901212058 102 142 0.0 1.0 0.00 0.00 0.00 34 1015.1
20260901211553 102 176 2.0 2.0 0.00 0.00 0.00 32 1015.3
20260901211050 101 220 1.0 1.0 0.00 0.00 0.00 33 1015.2
20260901210544 101 219 0.0 0.0 0.00 0.00 0.00 32 1015.3
20260901210041 103 224 0.0 1.0 0.00 0.00 0.00 31 1015.1
20260901205535 102 0 0.0 0.0 0.00 0.00 0.00 31 1015.2
20260901205030 100 168 0.0 0.0 0.00 0.00 0.00 33 1015.3
20260901204526 100 132 0.0 0.0 0.00 0.00 0.00 34 1015.3
20260901204020 103 140 3.0 3.0 0.00 0.00 0.00 33 1015.2
20260901203515 103 157 1.0 2.0 0.00 0.00 0.00 32 1015.6
20260901203011 103 180 2.0 2.0 0.00 0.00 0.00 31 1015.7
20260901202505 102 241 2.0 2.0 0.00 0.00 0.00 31 1015.7
20260901202001 103 216 2.0 2.0 0.00 0.00 0.00 31 1015.6
20260901201455 101 170 1.0 1.0 0.00 0.00 0.00 32 1015.5
20260901200950 100 148 2.0 2.0 0.00 0.00 0.00 34 1015.7
20260901200445 100 154 3.0 3.0 0.00 0.00 0.00 33 1015.9
20260901195944 98 181 1.0 2.0 0.00 0.00 0.00 36 1016.2
20260901195443 100 192 5.0 6.0 0.00 0.00 0.00 39 1015.8
20260901194938 101 218 2.0 2.0 0.00 0.00 0.00 36 1015.8
20260901194432 100 188 2.0 2.0 0.00 0.00 0.00 36 1016.0
20260901193929 102 198 1.0 1.0 0.00 0.00 0.00 32 1015.9
20260901193427 102 213 3.0 3.0 0.00 0.00 0.00 36 1016.0
20260901192922 103 150 3.0 3.0 0.00 0.00 0.00 35 1016.2
20260901192417 102 166 1.0 2.0 0.00 0.00 0.00 34 1016.4
20260901191913 103 307 2.0 2.0 0.00 0.00 0.00 32 1016.3
20260901191408 102 137 2.0 2.0 0.00 0.00 0.00 35 1016.2
20260901190904 100 207 2.0 2.0 0.00 0.00 0.00 34 1016.2
20260901190359 102 140 3.0 3.0 0.00 0.00 0.00 34 1016.3
20260901185857 101 203 1.0 1.0 0.00 0.00 0.00 33 1016.7
20260901185356 99 176 1.0 1.0 0.00 0.00 0.00 37 1016.4
20260901184852 99 162 1.0 1.0 0.00 0.00 0.00 38 1016.5
20260901184347 97 128 1.0 1.0 0.00 0.00 0.00 41 1016.8
20260901183842 98 111 0.0 1.0 0.00 0.00 0.00 38 1016.8
20260901183341 98 141 2.0 2.0 0.00 0.00 0.00 37 1016.9
20260901182837 100 63 3.0 3.0 0.00 0.00 0.00 35 1016.7
20260901182332 101 185 3.0 3.0 0.00 0.00 0.00 35 1016.6
20260901181827 102 227 1.0 2.0 0.00 0.00 0.00 34 1016.9
20260901181321 100 230 0.0 0.0 0.00 0.00 0.00 36 1016.9
20260901180815 101 294 2.0 2.0 0.00 0.00 0.00 35 1017.0
20260901180314 100 159 2.0 2.0 0.00 0.00 0.00 36 1017.0
20260901175814 99 207 3.0 3.0 0.00 0.00 0.00 37 1017.4
20260901175308 98 229 2.0 2.0 0.00 0.00 0.00 38 1017.3
20260901174803 97 260 4.0 6.0 0.00 0.00 0.00 38 1017.6
20260901174259 98 254 2.0 2.0 0.00 0.00 0.00 37 1017.8
20260901173754 98 190 3.0 3.0 0.00 0.00 0.00 41 1017.6
20260901173249 98 204 2.0 3.0 0.00 0.00 0.00 39 1017.6
20260901172746 97 240 2.0 2.0 0.00 0.00 0.00 41 1017.8
20260901172244 97 212 3.0 5.0 0.00 0.00 0.00 40 1017.7
20260901171743 98 184 3.0 5.0 0.00 0.00 0.00 40 1017.7
20260901171242 97 192 2.0 2.0 0.00 0.00 0.00 40 1017.8
20260901170741 97 183 2.0 2.0 0.00 0.00 0.00 41 1017.8
20260901170236 96 252 2.0 2.0 0.00 0.00 0.00 40 1018.1
20260901165734 95 197 4.0 6.0 0.00 0.00 0.00 41 1018.1
20260901165229 95 197 3.0 3.0 0.00 0.00 0.00 41 1017.9
20260901164726 95 242 4.0 5.0 0.00 0.00 0.00 43 1018.3
20260901164221 95 285 5.0 7.0 0.00 0.00 0.00 43 1018.1
20260901163716 95 244 3.0 3.0 0.00 0.00 0.00 46 1018.1
20260901163215 95 176 2.0 2.0 0.00 0.00 0.00 47 1018.1
20260901162710 94 194 3.0 3.0 0.00 0.00 0.00 49 1018.3
20260901162210 94 211 4.0 5.0 0.00 0.00 0.00 50 1018.4
20260901161709 95 193 2.0 2.0 0.00 0.00 0.00 47 1018.3
20260901161203 94 171 3.0 3.0 0.00 0.00 0.00 48 1018.1
20260901160700 93 250 4.0 5.0 0.00 0.00 0.00 48 1018.5
20260901160155 93 170 3.0 3.0 0.00 0.00 0.00 49 1018.4
20260901155653 92 171 2.0 2.0 0.00 0.00 0.00 50 1018.4
20260901155149 93 249 3.0 5.0 0.00 0.00 0.00 51 1018.2
20260901154644 92 196 3.0 3.0 0.00 0.00 0.00 52 1018.5
20260901154138 91 180 2.0 2.0 0.00 0.00 0.00 53 1018.4
20260901153634 91 197 3.0 3.0 0.00 0.00 0.00 54 1018.4
20260901153127 91 180 1.0 2.0 0.00 0.00 0.00 57 1018.6
20260901152623 91 196 2.0 2.0 0.00 0.00 0.00 58 1018.5
20260901152121 89 161 0.0 0.0 0.00 0.00 0.00 59 1018.3
20260901151617 89 201 0.0 0.0 0.00 0.00 0.00 59 1018.6
20260901151116 89 161 1.0 1.0 0.00 0.00 0.00 60 1018.4
20260901150615 89 149 1.0 1.0 0.00 0.00 0.00 61 1018.4
20260901150108 89 153 1.0 1.0 0.00 0.00 0.00 60 1018.4
20260901145607 88 179 0.0 0.0 0.00 0.00 0.00 61 1018.6
20260901145106 87 155 0.0 0.0 0.00 0.00 0.00 63 1018.6
20260901144602 86 151 0.0 0.0 0.00 0.00 0.00 62 1018.4
20260901144057 85 186 0.0 0.0 0.00 0.00 0.00 64 1018.5
20260901143552 84 171 0.0 0.0 0.00 0.00 0.00 69 1018.8
20260901143049 83 174 0.0 0.0 0.00 0.00 0.00 72 1018.7
20260901142544 82 178 0.0 0.0 0.00 0.00 0.00 73 1018.8
20260901142043 81 157 0.0 0.0 0.00 0.00 0.00 76 1018.7
20260901141538 81 187 1.0 1.0 0.00 0.00 0.00 77 1019.0
20260901141033 80 184 0.0 0.0 0.00 0.00 0.00 78 1018.7
20260901140531 80 178 0.0 0.0 0.00 0.00 0.00 79 1018.6
20260901140021 79 183 0.0 0.0 0.00 0.00 0.00 79 1019.0
20260901135520 78 201 0.0 0.0 0.00 0.00 0.00 80 1018.6
20260901135016 76 208 0.0 0.0 0.00 0.00 0.00 84 1018.9
20260901134512 76 210 0.0 0.0 0.00 0.00 0.00 84 1018.6
20260901134006 76 174 0.0 0.0 0.00 0.00 0.00 84 1018.9
20260901133505 76 218 0.0 0.0 0.00 0.00 0.00 83 1018.6
20260901133003 76 192 0.0 0.0 0.00 0.00 0.00 82 1018.8
20260901132457 75 171 0.0 0.0 0.00 0.00 0.00 81 1018.6
20260901131956 75 169 0.0 0.0 0.00 0.00 0.00 83 1018.8
20260901131451 74 170 0.0 0.0 0.00 0.00 0.00 83 1018.7
20260901130947 74 167 0.0 0.0 0.00 0.00 0.00 85 1018.7
20260901130441 74 167 0.0 0.0 0.00 0.00 0.00 85 1018.5
20260901125939 73 182 0.0 0.0 0.00 0.00 0.00 86 1018.7
20260901125438 73 158 0.0 0.0 0.00 0.00 0.00 86 1018.3
20260901124933 72 155 0.0 0.0 0.00 0.00 0.00 87 1018.4
20260901124428 72 158 0.0 0.0 0.00 0.00 0.00 88 1018.5
20260901123923 71 172 0.0 0.0 0.00 0.00 0.00 88 1018.5
20260901123418 71 180 0.0 0.0 0.00 0.00 0.00 88 1018.4
20260901122916 72 245 0.0 0.0 0.00 0.00 0.00 87 1018.4
20260901122411 72 153 0.0 0.0 0.00 0.00 0.00 87 1018.3
20260901121910 72 144 0.0 0.0 0.00 0.00 0.00 87 1018.2
20260901121405 71 158 0.0 0.0 0.00 0.00 0.00 87 1018.0
20260901120901 71 156 0.0 0.0 0.00 0.00 0.00 88 1018.2
20260901120355 71 155 0.0 0.0 0.00 0.00 0.00 88 1018.1
20260901115850 71 268 0.0 0.0 0.00 0.00 0.00 88 1017.9
20260901115345 71 184 0.0 0.0 0.00 0.00 0.00 87 1017.9
20260901114843 71 170 0.0 0.0 0.00 0.00 0.00 87 1018.0
20260901114338 71 307 0.0 0.0 0.00 0.00 0.00 87 1017.9
20260901113836 71 280 0.0 0.0 0.00 0.00 0.00 87 1017.6
20260901113335 72 229 0.0 0.0 0.00 0.00 0.00 86 1017.6
20260901112831 72 213 0.0 0.0 0.00 0.00 0.00 86 1017.6
20260901112330 72 184 0.0 0.0 0.00 0.00 0.00 87 1017.6
20260901111825 72 211 0.0 0.0 0.00 0.00 0.00 87 1017.3
20260901111324 72 199 0.0 0.0 0.00 0.00 0.00 87 1017.6
20260901110823 72 239 0.0 0.0 0.00 0.00 0.00 87 1017.5
20260901110319 72 200 0.0 0.0 0.00 0.00 0.00 87 1017.4